This is the latest recevied weather packets stored in our database for station/object SV2RCS-13. If no packets are shown the sender has not sent any weather packets the latest 10 day(s).
| Time | Temp. | Humidity | Pressure | Rain* | Wind** | Luminosity | Snow |
|---|---|---|---|---|---|---|---|
| 1777313215 | 16.67° C | 44% | 1016.4 hPa | - | - | - | - |
| 1777312615 | 17.22° C | 42% | 1016.2 hPa | - | - | - | - |
| 1777312018 | 17.22° C | 51% | 1016.2 hPa | - | - | - | - |
| 1777311415 | 17.22° C | 50% | 1015.9 hPa | - | - | - | - |
| 1777310816 | 17.78° C | 49% | 1015.7 hPa | - | - | - | - |
| 1777310215 | 17.78° C | 44% | 1015.6 hPa | - | - | - | - |
| 1777309616 | 18.33° C | 41% | 1015.4 hPa | - | - | - | - |
| 1777309015 | 18.33° C | 40% | 1015.2 hPa | - | - | - | - |
| 1777308415 | 18.89° C | 39% | 1015 hPa | - | - | - | - |
| 1777307815 | 18.89° C | 38% | 1014.8 hPa | - | - | - | - |
| 1777307216 | 18.89° C | 37% | 1014.6 hPa | - | - | - | - |
| 1777306616 | 19.44° C | 36% | 1014.4 hPa | - | - | - | - |
| 1777306016 | 19.44° C | 35% | 1014.4 hPa | - | - | - | - |
| 1777305415 | 19.44° C | 35% | 1014.6 hPa | - | - | - | - |
| 1777304815 | 19.44° C | 35% | 1014.5 hPa | - | - | - | - |
| 1777304215 | 19.44° C | 35% | 1014.5 hPa | - | - | - | - |
| 1777303616 | 19.44° C | 34% | 1014.3 hPa | - | - | - | - |
| 1777303015 | 20° C | 34% | 1014.4 hPa | - | - | - | - |
| 1777302416 | 19.44° C | 33% | 1014.2 hPa | - | - | - | - |
| 1777301816 | 20° C | 32% | 1014.2 hPa | - | - | - | - |
| 1777301215 | 20° C | 32% | 1014.3 hPa | - | - | - | - |
| 1777300615 | 20° C | 32% | 1014.4 hPa | - | - | - | - |
| 1777300015 | 20° C | 32% | 1014.4 hPa | - | - | - | - |
| 1777299415 | 20° C | 32% | 1014.3 hPa | - | - | - | - |
| 1777298815 | 20.56° C | 31% | 1014.4 hPa | - | - | - | - |
* Rain since midnight (hover to see other rain measurements)
** Current wind speed in m/s (hover to see current wind gust speed)